Location: Unspecified
(51.0950°N, 12.9690°E)
Time: 21:33:46
(UTC+00:00)

CZ-4 R/B - Pass Details

Date: 28 October 2021
Orbit: 531 x 595 km, 97.8° (Epoch: 01 December)

Event Time Altitude Azimuth Distance (km) Brightness Sun altitude
Rises 16:26:19 0° 121° (ESE) 2,781 4.5 -6.4°
Reaches altitude 10° 16:28:59 10° 102° (ESE) 1,899 3.5 -6.8°
Maximum altitude 16:31:46 18° 59° (ENE) 1,469 2.9 -7.2°
Drops below altitude 10° 16:34:35 10° 17° (NNE) 1,928 3.8 -7.7°
Sets 16:37:19 0° 358° (N) 2,843 4.9 -8.1°
